Weather History for KFQD - January, 2013

Change the Weather History Date:

Thursday, January 31, 2013

  Actual Average (KAVL) Record (KAVL)
Temperature  
Mean Temperature 40 °F 38 °F  
Max Temperature 47 °F 49 °F 78 °F (1975)
Min Temperature 32 °F 27 °F 1 °F (1966)
Degree Days  
Heating Degree Days 26 27  
Month to date heating degree days 864  
Since 1 July heating degree days 2527  
Cooling Degree Days 0 0  
Month to date cooling degree days 0  
Year to date cooling degree days 0  
Moisture  
Dew Point 24 °F    
Average Humidity 52    
Maximum Humidity 89    
Minimum Humidity 32    
Precipitation  
Precipitation 0.04 in 0.12 in 2.03 in (1957)
Month to date precipitation 3.67  
Year to date precipitation 3.67  
Snow  
Snow 0.00 in 0.10 in 4.50 in (1908)
Month to date snowfall 4.1  
Since 1 July snowfall 5.1  
Snow Depth -    
Sea Level Pressure  
Sea Level Pressure 29.88 in    
Wind  
Wind Speed 11 mph (WNW)    
Max Wind Speed 26 mph    
Max Gust Speed 34 mph    
Visibility 10 miles    
Events Rain    
T = Trace of Precipitation, MM = Missing Value Source: NWS Daily Summary

Daily Weather History Graph

Daily Weather History Graph

Search for Another Location

Airport or City:

Trip Planner

Search our weather history database for the weather conditions in past years. The results will help you decide how hot, cold, wet, or windy it might be!

Date:

Astronomy

Jan. 31, 2013 Rise Set
Actual Time 7:27 AM EST 5:55 PM EST
Civil Twilight 7:01 AM EST 6:21 PM EST
Nautical Twilight 6:30 AM EST 6:52 PM EST
Astronomical Twilight 6:00 AM EST 7:22 PM EST
Moon 10:42 PM EST (1/31) 9:38 AM EST (1/31)
Length of Visible Light 11h 20m
Length of Day
10h 27m
Waning Gibbous, 80% of the Moon is Illuminated
Jan 31
Waning Gibbous
Feb 3
Last Quarter
Feb 10
New
Feb 17
First Quarter
Feb 25
Full

Hourly Weather History & Observations

Time (EST) Temp. Windchill Dew Point Humidity Pressure Visibility Wind Dir Wind Speed Gust Speed Precip Events Conditions
12:15 AM 46.9 °F - 43.9 °F 89% 29.57 in 10.0 mi SW 12.7 mph 20.7 mph N/A   Overcast
12:35 AM 46.4 °F 41.1 °F 43.0 °F 88% 29.56 in 10.0 mi SSW 11.5 mph 18.4 mph N/A   Overcast
12:55 AM 46.0 °F 40.2 °F 42.6 °F 88% 29.57 in 10.0 mi SSW 12.7 mph 18.4 mph N/A   Overcast
1:15 AM 45.7 °F 40.6 °F 42.3 °F 88% 29.57 in 10.0 mi SW 10.4 mph 19.6 mph N/A Rain Light Rain
1:35 AM 44.8 °F 39.9 °F 41.2 °F 87% 29.60 in 5.0 mi WNW 9.2 mph 19.6 mph 0.04 in Rain Rain
1:55 AM 44.1 °F 40.8 °F 39.6 °F 84% 29.61 in 10.0 mi WNW 5.8 mph - 0.04 in   Scattered Clouds
2:15 AM 43.0 °F 37.2 °F 38.5 °F 84% 29.62 in 10.0 mi WNW 10.4 mph - N/A   Clear
2:35 AM 43.2 °F 37.0 °F 35.4 °F 74% 29.63 in 10.0 mi WNW 11.5 mph 23.0 mph N/A   Clear
2:55 AM 42.6 °F 34.9 °F 34.0 °F 71% 29.65 in 10.0 mi WNW 16.1 mph 25.3 mph N/A   Scattered Clouds
3:15 AM 42.3 °F 35.5 °F 32.5 °F 68% 29.67 in 10.0 mi WNW 12.7 mph 23.0 mph N/A   Scattered Clouds
3:35 AM 41.7 °F 33.7 °F 29.5 °F 62% 29.68 in 10.0 mi WNW 16.1 mph 31.1 mph N/A   Scattered Clouds
3:55 AM 41.0 °F 33.1 °F 28.8 °F 62% 29.70 in 10.0 mi WNW 15.0 mph 24.2 mph N/A   Scattered Clouds
4:15 AM 39.7 °F 31.2 °F 27.7 °F 62% 29.72 in 10.0 mi WNW 16.1 mph 23.0 mph N/A   Clear
4:35 AM 39.2 °F 29.8 °F 24.4 °F 56% 29.74 in 10.0 mi WNW 18.4 mph 31.1 mph N/A   Clear
4:55 AM 38.3 °F 26.8 °F 22.1 °F 52% 29.76 in 10.0 mi WNW 26.5 mph 34.5 mph N/A   Clear
5:15 AM 37.6 °F 27.1 °F 21.7 °F 53% 29.77 in 10.0 mi WNW 20.7 mph 27.6 mph N/A   Clear
5:35 AM 37.4 °F 30.8 °F 21.7 °F 53% 29.79 in 10.0 mi WNW 9.2 mph 25.3 mph N/A   Clear
5:55 AM 36.7 °F 29.4 °F 22.8 °F 57% 29.81 in 10.0 mi West 10.4 mph 17.3 mph N/A   Clear
6:15 AM 36.0 °F 28.5 °F 23.5 °F 61% 29.82 in 10.0 mi West 10.4 mph 20.7 mph N/A   Clear
6:35 AM 35.6 °F 26.2 °F 22.5 °F 59% 29.83 in 10.0 mi WNW 15.0 mph 23.0 mph N/A   Scattered Clouds
7:15 AM 34.7 °F 26.9 °F 20.3 °F 56% 29.86 in 10.0 mi WNW 10.4 mph 19.6 mph N/A   Clear
7:35 AM 34.5 °F 26.2 °F 19.9 °F 55% 29.87 in 10.0 mi West 11.5 mph 16.1 mph N/A   Clear
7:55 AM 34.9 °F 27.1 °F 20.1 °F 55% 29.89 in 10.0 mi West 10.4 mph 18.4 mph N/A   Clear
8:15 AM 35.6 °F 28.0 °F 20.5 °F 54% 29.89 in 10.0 mi WNW 10.4 mph 18.4 mph N/A   Clear
8:35 AM 36.5 °F 30.3 °F 21.2 °F 54% 29.90 in 10.0 mi WNW 8.1 mph - N/A   Clear
8:55 AM 37.4 °F 31.4 °F 21.6 °F 53% 29.91 in 10.0 mi WNW 8.1 mph - N/A   Clear
9:15 AM 38.1 °F 30.7 °F 22.1 °F 53% 29.92 in 10.0 mi WNW 11.5 mph 17.3 mph N/A   Clear
9:35 AM 39.0 °F 32.3 °F 22.8 °F 52% 29.92 in 10.0 mi WNW 10.4 mph 17.3 mph N/A   Clear
9:55 AM 39.7 °F 33.7 °F 22.6 °F 50% 29.93 in 10.0 mi NW 9.2 mph - N/A   Clear
10:15 AM 40.6 °F 34.3 °F 22.1 °F 48% 29.93 in 10.0 mi WNW 10.4 mph 19.6 mph N/A   Clear
10:35 AM 40.5 °F 34.1 °F 20.3 °F 45% 29.94 in 10.0 mi WNW 10.4 mph - N/A   Clear
10:55 AM 41.7 °F 35.2 °F 20.5 °F 43% 29.94 in 10.0 mi WNW 11.5 mph 16.1 mph N/A   Clear
11:15 AM 41.9 °F 35.9 °F 19.9 °F 42% 29.94 in 10.0 mi West 10.4 mph 16.1 mph N/A   Clear
11:35 AM 43.3 °F 38.1 °F 21.2 °F 41% 29.94 in 10.0 mi West 9.2 mph 17.3 mph N/A   Clear
11:55 AM 44.4 °F 38.6 °F 21.9 °F 41% 29.95 in 10.0 mi WNW 11.5 mph 19.6 mph N/A   Clear
12:15 PM 45.0 °F 39.7 °F 21.7 °F 40% 29.94 in 10.0 mi West 10.4 mph - N/A   Scattered Clouds
12:35 PM 45.0 °F 38.9 °F 20.7 °F 38% 29.93 in 10.0 mi West 12.7 mph 20.7 mph N/A   Mostly Cloudy
12:55 PM 45.7 °F 40.6 °F 21.6 °F 38% 29.93 in 10.0 mi WNW 10.4 mph 19.6 mph N/A   Scattered Clouds
1:15 PM 46.4 °F 42.9 °F 21.9 °F 38% 29.93 in 10.0 mi WNW 6.9 mph 17.3 mph N/A   Scattered Clouds
1:35 PM 46.8 °F - 21.9 °F 37% 29.93 in 10.0 mi WNW 13.8 mph 20.7 mph N/A   Scattered Clouds
1:55 PM 47.3 °F - 21.2 °F 36% 29.93 in 10.0 mi NW 13.8 mph 19.6 mph N/A   Clear
2:15 PM 46.0 °F 40.2 °F 20.1 °F 36% 29.94 in 10.0 mi WNW 12.7 mph 25.3 mph N/A   Scattered Clouds
2:35 PM 47.1 °F - 21.2 °F 36% 29.95 in 10.0 mi NW 18.4 mph 25.3 mph N/A   Clear
2:55 PM 46.6 °F - 19.9 °F 35% 29.96 in 10.0 mi WNW 12.7 mph 21.9 mph N/A   Scattered Clouds
3:15 PM 46.4 °F 39.0 °F 17.6 °F 32% 29.97 in 10.0 mi WNW 19.6 mph 25.3 mph N/A   Scattered Clouds
3:35 PM 46.6 °F - 18.7 °F 33% 29.97 in 10.0 mi WNW 11.5 mph 20.7 mph N/A   Clear
4:15 PM 45.1 °F 39.1 °F 17.4 °F 33% 29.98 in 10.0 mi WNW 12.7 mph 26.5 mph N/A   Clear
4:35 PM 45.1 °F 39.9 °F 18.9 °F 35% 29.97 in 10.0 mi WNW 10.4 mph 19.6 mph N/A   Clear
4:55 PM 44.4 °F 37.2 °F 18.0 °F 35% 29.98 in 10.0 mi WNW 16.1 mph 20.7 mph N/A   Clear
5:15 PM 44.1 °F 38.6 °F 18.3 °F 36% 29.98 in 10.0 mi NW 10.4 mph 18.4 mph N/A   Clear
5:35 PM 43.2 °F 37.9 °F 18.5 °F 37% 29.98 in 10.0 mi WNW 9.2 mph - N/A   Clear
5:55 PM 41.5 °F 37.1 °F 18.7 °F 40% 29.99 in 10.0 mi WNW 6.9 mph - N/A   Clear
6:15 PM 40.3 °F 38.2 °F 18.5 °F 42% 29.99 in 10.0 mi West 3.5 mph - N/A   Clear
6:35 PM 39.9 °F 36.7 °F 18.5 °F 42% 29.99 in 10.0 mi West 4.6 mph - N/A   Clear
6:55 PM 39.7 °F - 17.8 °F 41% 30.00 in 10.0 mi Calm Calm - N/A   Clear
7:15 PM 39.0 °F - 18.7 °F 44% 30.01 in 10.0 mi Calm Calm - N/A   Clear
7:35 PM 35.8 °F - 19.2 °F 51% 30.01 in 10.0 mi Calm Calm - N/A   Clear
8:15 PM 38.5 °F 36.1 °F 17.6 °F 43% 30.01 in 10.0 mi WSW 3.5 mph - N/A   Clear
8:35 PM 37.4 °F 34.9 °F 19.0 °F 48% 30.00 in 10.0 mi WSW 3.5 mph - N/A   Clear
9:15 PM 37.2 °F 34.7 °F 18.3 °F 46% 30.01 in 10.0 mi WSW 3.5 mph - N/A   Clear
9:35 PM 36.7 °F - 18.7 °F 48% 30.01 in 10.0 mi Calm Calm - N/A   Clear
9:55 PM 34.9 °F 32.0 °F 20.1 °F 55% 30.01 in 10.0 mi WNW 3.5 mph - N/A   Clear
10:15 PM 33.6 °F - 20.3 °F 58% 30.01 in 10.0 mi Calm Calm - N/A   Clear
10:35 PM 32.7 °F 28.3 °F 20.7 °F 61% 30.02 in 10.0 mi SW 4.6 mph - N/A   Clear
10:55 PM 33.6 °F 28.4 °F 20.8 °F 59% 30.00 in 10.0 mi SW 5.8 mph - N/A   Clear
11:15 PM 34.9 °F 29.9 °F 21.6 °F 58% 30.00 in 10.0 mi SW 5.8 mph - N/A   Clear
11:35 PM 36.3 °F 30.1 °F 21.7 °F 56% 30.00 in 10.0 mi SW 8.1 mph - N/A   Clear